• In Latvia
  • List of Countries
  • For 7 days
  • Water Temperature
  • Satellite Maps
  • Weather Map
  • Weather Widgets
  • user-avatar
    Login

    Hourly Weather Andora

    Today, 26 April, Thursday

    Time Temperature Precipitation Wind Pressure Humidity
    00:00 +7°C° 0.1 mm 2 mps 627 mmHg 92%
    01:00 +6°C° 0 mm 2 mps 626 mmHg 92%
    02:00 +6°C° 0 mm 2 mps 626 mmHg 92%
    03:00 +5°C° 0 mm 2 mps 626 mmHg 92%
    04:00 +5°C° 0 mm 2 mps 626 mmHg 91%
    05:00 +5°C° 0 mm 2 mps 626 mmHg 91%
    06:00 +5°C° 0 mm 2 mps 626 mmHg 90%
    07:00 +6°C° 0 mm 2 mps 626 mmHg 84%
    08:00 +8°C° 0 mm 2 mps 627 mmHg 78%
    09:00 +9°C° 0 mm 2 mps 627 mmHg 73%
    10:00 +12°C° 0 mm 2 mps 628 mmHg 65%
    11:00 +13°C° 0 mm 2 mps 628 mmHg 58%
    12:00 +15°C° 0 mm 2 mps 628 mmHg 51%
    13:00 +15°C° 0 mm 2 mps 628 mmHg 52%
    14:00 +15°C° 0 mm 2 mps 627 mmHg 53%
    15:00 +15°C° 0 mm 1 mps 627 mmHg 54%
    16:00 +14°C° 0.1 mm 1 mps 626 mmHg 61%
    17:00 +12°C° 0.1 mm 1 mps 626 mmHg 69%
    18:00 +11°C° 0.1 mm 1 mps 625 mmHg 76%
    19:00 +10°C° 0.1 mm 1 mps 625 mmHg 81%
    20:00 +9°C° 0.1 mm 1 mps 624 mmHg 86%
    21:00 +8°C° 0.1 mm 1 mps 624 mmHg 91%
    22:00 +8°C° 0.1 mm 1 mps 624 mmHg 91%
    23:00 +7°C° 0.1 mm 1 mps 623 mmHg 92%

    Tomorrow, 27 April, Friday

    Time Temperature Precipitation Wind Pressure Humidity
    00:00 +7°C° 0.1 mm 1 mps 623 mmHg 93%
    01:00 +7°C° 0 mm 1 mps 622 mmHg 92%
    02:00 +6°C° 0 mm 1 mps 622 mmHg 91%
    03:00 +6°C° 0 mm 1 mps 622 mmHg 91%
    04:00 +6°C° 0 mm 1 mps 622 mmHg 86%
    05:00 +6°C° 0 mm 1 mps 622 mmHg 82%
    06:00 +7°C° 0 mm 1 mps 622 mmHg 78%
    07:00 +9°C° 0 mm 1 mps 623 mmHg 69%
    08:00 +12°C° 0 mm 1 mps 624 mmHg 60%
    09:00 +14°C° 0 mm 1 mps 625 mmHg 51%
    10:00 +14°C° 0 mm 1 mps 625 mmHg 51%
    11:00 +15°C° 0 mm 2 mps 625 mmHg 51%
    12:00 +15°C° 0 mm 2 mps 625 mmHg 51%
    13:00 +15°C° 0.1 mm 2 mps 625 mmHg 53%
    14:00 +14°C° 0.1 mm 2 mps 625 mmHg 56%
    15:00 +14°C° 0.1 mm 2 mps 624 mmHg 58%
    16:00 +12°C° 0.3 mm 2 mps 624 mmHg 66%
    17:00 +10°C° 0.3 mm 2 mps 624 mmHg 74%
    18:00 +9°C° 0.3 mm 2 mps 623 mmHg 82%
    19:00 +9°C° 0.5 mm 1 mps 623 mmHg 86%
    20:00 +8°C° 0.5 mm 1 mps 623 mmHg 90%
    21:00 +7°C° 0.5 mm 1 mps 624 mmHg 94%
    22:00 +7°C° 0.9 mm 1 mps 623 mmHg 94%
    23:00 +7°C° 0.9 mm 1 mps 623 mmHg 95%

    Day after tomorrow, 28 April, Saturday

    Time Temperature Precipitation Wind Pressure Humidity
    00:00 +7°C° 0.9 mm 1 mps 623 mmHg 95%
    01:00 +7°C° 0.5 mm 1 mps 622 mmHg 96%
    02:00 +5°C° 0.5 mm 2 mps 622 mmHg 96%
    03:00 +5°C° 0.5 mm 2 mps 622 mmHg 96%
    04:00 +5°C° 0.1 mm 2 mps 621 mmHg 95%
    05:00 +5°C° 0.1 mm 2 mps 621 mmHg 94%
    06:00 +5°C° 0.1 mm 2 mps 621 mmHg 93%
    07:00 +6°C° 0.1 mm 2 mps 621 mmHg 88%
    08:00 +7°C° 0.1 mm 3 mps 622 mmHg 82%
    09:00 +9°C° 0.1 mm 3 mps 622 mmHg 77%
    10:00 +10°C° 0.1 mm 3 mps 622 mmHg 72%
    11:00 +11°C° 0.1 mm 3 mps 622 mmHg 67%
    12:00 +12°C° 0.1 mm 3 mps 622 mmHg 62%
    13:00 +12°C° 0.1 mm 3 mps 621 mmHg 60%
    14:00 +12°C° 0.1 mm 3 mps 621 mmHg 59%
    15:00 +12°C° 0.1 mm 3 mps 620 mmHg 57%
    16:00 +11°C° 0.2 mm 3 mps 620 mmHg 65%
    17:00 +10°C° 0.2 mm 3 mps 619 mmHg 73%
    18:00 +9°C° 0.2 mm 3 mps 618 mmHg 81%
    19:00 +8°C° 0.4 mm 3 mps 618 mmHg 83%
    20:00 +7°C° 0.4 mm 3 mps 618 mmHg 86%
    21:00 +5°C° 0.4 mm 3 mps 618 mmHg 89%
    22:00 +5°C° 0.7 mm 3 mps 617 mmHg 89%
    23:00 +6°C° 0.7 mm 2 mps 617 mmHg 90%

    29 April, Sunday

    Time Temperature Precipitation Wind Pressure Humidity
    00:00 +5°C° 0.7 mm 2 mps 617 mmHg 91%
    01:00 +4°C° 1.3 mm 3 mps 616 mmHg 92%
    02:00 +4°C° 1.3 mm 3 mps 616 mmHg 94%
    03:00 +3°C° 1.3 mm 3 mps 616 mmHg 95%
    04:00 +3°C° 0.6 mm 3 mps 616 mmHg 94%
    05:00 +2°C° 0.6 mm 3 mps 616 mmHg 93%
    06:00 +3°C° 0.6 mm 2 mps 616 mmHg 92%
    07:00 +3°C° 0.4 mm 3 mps 617 mmHg 86%
    08:00 +3°C° 0.4 mm 3 mps 617 mmHg 79%
    09:00 +4°C° 0.4 mm 3 mps 618 mmHg 72%
    10:00 +4°C° 0.4 mm 3 mps 618 mmHg 70%
    11:00 +4°C° 0.4 mm 4 mps 618 mmHg 68%
    12:00 +5°C° 0.4 mm 4 mps 618 mmHg 65%
    13:00 +5°C° 0.5 mm 4 mps 618 mmHg 65%
    14:00 +4°C° 0.5 mm 4 mps 618 mmHg 65%
    15:00 +4°C° 0.5 mm 4 mps 618 mmHg 64%
    16:00 +3°C° 0.4 mm 3 mps 619 mmHg 67%
    17:00 +3°C° 0.4 mm 3 mps 619 mmHg 71%
    18:00 +2°C° 0.4 mm 3 mps 619 mmHg 74%
    19:00 +2°C° 0.2 mm 2 mps 620 mmHg 78%
    20:00 +1°C° 0.2 mm 2 mps 620 mmHg 83%
    21:00 +1°C° 0.2 mm 1 mps 620 mmHg 88%
    22:00 0°C° 0 mm 1 mps 620 mmHg 88%
    23:00 0°C° 0 mm 1 mps 620 mmHg 88%

    30 April, Monday

    Time Temperature Precipitation Wind Pressure Humidity
    00:00 -1°C° 0 mm 1 mps 620 mmHg 88%
    01:00 -1°C° 0 mm 1 mps 620 mmHg 87%
    02:00 -1°C° 0 mm 1 mps 620 mmHg 86%
    03:00 -2°C° 0 mm 1 mps 620 mmHg 86%
    04:00 -1°C° 0 mm 1 mps 620 mmHg 83%
    05:00 0°C° 0 mm 1 mps 621 mmHg 79%
    06:00 0°C° 0 mm 1 mps 621 mmHg 76%
    07:00 +2°C° 0 mm 1 mps 622 mmHg 70%
    08:00 +3°C° 0 mm 2 mps 623 mmHg 64%
    09:00 +4°C° 0 mm 3 mps 623 mmHg 58%
    10:00 +4°C° 0.1 mm 3 mps 623 mmHg 57%
    11:00 +5°C° 0.1 mm 3 mps 623 mmHg 56%
    12:00 +6°C° 0.1 mm 4 mps 623 mmHg 55%
    13:00 +7°C° 0.2 mm 3 mps 623 mmHg 56%
    14:00 +7°C° 0.2 mm 3 mps 623 mmHg 57%
    15:00 +7°C° 0.2 mm 3 mps 622 mmHg 58%
    16:00 +6°C° 0.3 mm 2 mps 622 mmHg 64%
    17:00 +5°C° 0.3 mm 2 mps 621 mmHg 71%
    18:00 +4°C° 0.3 mm 2 mps 621 mmHg 78%
    19:00 +4°C° 0.6 mm 1 mps 621 mmHg 81%
    20:00 +3°C° 0.6 mm 1 mps 621 mmHg 85%
    21:00 +3°C° 0.6 mm 1 mps 621 mmHg 88%
    22:00 +2°C° 0.7 mm 1 mps 620 mmHg 89%
    23:00 +2°C° 0.7 mm 1 mps 620 mmHg 90%

    1 May, Tuesday

    Time Temperature Precipitation Wind Pressure Humidity
    00:00 +2°C° 0.7 mm 1 mps 620 mmHg 91%
    01:00 +2°C° 0.8 mm 1 mps 620 mmHg 90%
    02:00 +2°C° 0.8 mm 1 mps 619 mmHg 90%
    03:00 +1°C° 0.8 mm 1 mps 619 mmHg 90%
    04:00 +1°C° 0.4 mm 1 mps 619 mmHg 89%
    05:00 +1°C° 0.4 mm 1 mps 619 mmHg 88%
    06:00 +1°C° 0.4 mm 1 mps 619 mmHg 87%
    07:00 +2°C° 0.4 mm 1 mps 619 mmHg 84%
    08:00 +3°C° 0.4 mm 1 mps 620 mmHg 82%
    09:00 +4°C° 0.4 mm 1 mps 620 mmHg 79%
    10:00 +4°C° 0.3 mm 1 mps 620 mmHg 78%
    11:00 +5°C° 0.3 mm 1 mps 620 mmHg 77%
    12:00 +5°C° 0.3 mm 2 mps 620 mmHg 75%
    13:00 +4°C° 1 mm 2 mps 620 mmHg 80%
    14:00 +4°C° 1 mm 2 mps 620 mmHg 84%
    15:00 +3°C° 1 mm 2 mps 619 mmHg 88%
    16:00 +3°C° 1.1 mm 2 mps 619 mmHg 89%
    17:00 +2°C° 1.1 mm 2 mps 619 mmHg 91%
    18:00 +2°C° 1.1 mm 2 mps 619 mmHg 93%
    19:00 +1°C° 0.3 mm 2 mps 619 mmHg 93%
    20:00 +1°C° 0.3 mm 2 mps 619 mmHg 93%
    21:00 -1°C° 0.3 mm 2 mps 619 mmHg 93%
    22:00 -1°C° 0.1 mm 2 mps 619 mmHg 92%
    23:00 -1°C° 0.1 mm 2 mps 618 mmHg 92%
    Show more